Weather History for KHRL - July, 2013

Change the Weather History Date:

Thursday, July 25, 2013

  Actual Average Record
Temperature  
Mean Temperature 89 °F 85 °F  
Max Temperature 100 °F 96 °F 104 °F (1943)
Min Temperature 77 °F 75 °F 66 °F (1915)
Degree Days  
Heating Degree Days 0 0  
Month to date heating degree days 0 0  
Since 1 June heating degree days 0 0  
Since 1 July heating degree days 0 0  
Cooling Degree Days 24 20  
Month to date cooling degree days 497 500  
Year to date cooling degree days 2227 2169  
Since 1 June cooling degree days 1132 1068  
Growing Degree Days 38 (Base 50)    
Moisture  
Dew Point 73 °F    
Average Humidity 68    
Maximum Humidity 97    
Minimum Humidity 39    
Precipitation  
Precipitation 0.00 in 0.05 in 1.25 in (1934)
Month to date precipitation 1.62 1.66  
Year to date precipitation 9.59 12.08  
Sea Level Pressure  
Sea Level Pressure 29.97 in    
Wind  
Wind Speed 13 mph (SSE)    
Max Wind Speed 25 mph    
Max Gust Speed 29 mph    
Visibility 10 miles    
Events      
T = Trace of Precipitation, MM = Missing Value Source: NWS Daily Summary

Daily Weather History Graph

Daily Weather History Graph

Search for Another Location

Airport or City:

Trip Planner

Search our weather history database for the weather conditions in past years. The results will help you decide how hot, cold, wet, or windy it might be!

Date:

Astronomy

Jul. 25, 2013 Rise Set
Actual Time 6:52 AM CDT 8:21 PM CDT
Civil Twilight 6:27 AM CDT 8:46 PM CDT
Nautical Twilight 5:57 AM CDT 9:16 PM CDT
Astronomical Twilight 5:26 AM CDT 9:47 PM CDT
Moon 10:31 PM CDT (7/25) 9:58 AM CDT (7/25)
Length of Visible Light 14h 18m
Length of Day
13h 28m
Waning Gibbous, 88% of the Moon is Illuminated
Jul 25
Waning Gibbous
Jul 29
Last Quarter
Aug 6
New
Aug 14
First Quarter
Aug 20
Full

Hourly Weather History & Observations

Time (CDT) Temp. Heat Index Dew Point Humidity Pressure Visibility Wind Dir Wind Speed Gust Speed Precip Events Conditions
12:52 AM 78.1 °F - 73.9 °F 87% 29.96 in 10.0 mi SE 8.1 mph - N/A   Clear
1:52 AM 78.1 °F - 73.9 °F 87% 29.95 in 10.0 mi SSE 9.2 mph - N/A   Clear
2:52 AM 78.1 °F - 75.0 °F 90% 29.94 in 10.0 mi SE 8.1 mph - N/A   Clear
3:52 AM 78.1 °F - 75.0 °F 90% 29.94 in 10.0 mi SE 5.8 mph - N/A   Clear
4:52 AM 78.1 °F - 75.0 °F 90% 29.94 in 9.0 mi SE 5.8 mph - N/A   Clear
5:52 AM 78.1 °F - 75.0 °F 90% 29.95 in 8.0 mi SE 6.9 mph - N/A   Clear
6:52 AM 77.0 °F - 75.0 °F 94% 29.95 in 7.0 mi SE 6.9 mph - N/A   Clear
7:52 AM 79.0 °F - 77.0 °F 94% 29.97 in 8.0 mi SE 6.9 mph - N/A   Clear
8:52 AM 84.0 °F 92.6 °F 75.9 °F 76% 29.97 in 10.0 mi South 16.1 mph - N/A   Clear
9:52 AM 90.0 °F 96.9 °F 72.0 °F 55% 29.98 in 10.0 mi South 13.8 mph - N/A   Clear
10:52 AM 93.0 °F 99.0 °F 70.0 °F 47% 29.98 in 10.0 mi South 12.7 mph 20.7 mph N/A   Clear
11:52 AM 96.1 °F 101.6 °F 69.1 °F 41% 29.99 in 10.0 mi South 16.1 mph 23.0 mph N/A   Clear
12:52 PM 98.1 °F 104.4 °F 69.1 °F 39% 29.98 in 10.0 mi SSE 13.8 mph 23.0 mph N/A   Clear
1:52 PM 98.1 °F 104.4 °F 69.1 °F 39% 29.97 in 10.0 mi South 21.9 mph 26.5 mph N/A   Partly Cloudy
2:52 PM 99.0 °F 105.5 °F 69.1 °F 38% 29.96 in 10.0 mi SSE 17.3 mph 26.5 mph N/A   Scattered Clouds
3:52 PM 97.0 °F 103.5 °F 70.0 °F 41% 29.96 in 10.0 mi SSE 19.6 mph 26.5 mph N/A   Scattered Clouds
4:52 PM 96.1 °F 102.9 °F 70.0 °F 43% 29.96 in 10.0 mi SE 17.3 mph 25.3 mph N/A   Partly Cloudy
5:52 PM 93.0 °F 100.1 °F 71.1 °F 49% 29.96 in 10.0 mi SE 16.1 mph - N/A   Scattered Clouds
6:52 PM 91.9 °F 98.4 °F 71.1 °F 50% 29.96 in 10.0 mi SSE 15.0 mph - N/A   Clear
7:52 PM 88.0 °F 95.6 °F 73.0 °F 61% 29.97 in 10.0 mi SE 17.3 mph - N/A   Clear
8:52 PM 84.9 °F 91.4 °F 73.0 °F 67% 29.98 in 10.0 mi SE 13.8 mph - N/A   Clear
9:52 PM 82.9 °F 89.4 °F 73.9 °F 74% 30.00 in 10.0 mi SE 12.7 mph - N/A   Clear
10:52 PM 81.0 °F 86.7 °F 75.0 °F 82% 30.01 in 10.0 mi SE 11.5 mph - N/A   Clear
11:52 PM 81.0 °F 86.7 °F 75.0 °F 82% 30.02 in 10.0 mi SSE 11.5 mph - N/A   Clear